FW8483 Weather Reports


time (UTC)temp
F
wind
direction
speed
knots
gust
knots
rain 1hr
in
rain 24hr
in
rain mn
in
humidity
%
barometer
mb
20260902234514 88 78 0.0 0.0 0.00 0.00 0.00 68 1015.2
20260902234006 88 74 0.0 0.9 0.00 0.00 0.00 68 1015.1
20260902233506 88 74 0.0 5.2 0.00 0.00 0.00 68 1015.0
20260902233016 89 90 1.7 5.2 0.00 0.00 0.00 68 1014.9
20260902232507 89 86 0.0 2.6 0.00 0.00 0.00 66 1014.9
20260902232011 90 78 0.9 2.6 0.00 0.00 0.00 65 1014.7
20260902231524 90 84 0.0 2.6 0.00 0.00 0.00 65 1014.7
20260902231014 91 79 0.9 2.6 0.00 0.00 0.00 65 1014.7
20260902230513 91 71 0.0 1.7 0.00 0.00 0.00 64 1014.8
20260902230028 91 87 0.0 3.5 0.00 0.00 0.00 64 1014.8
20260902225503 91 94 1.7 3.5 0.00 0.00 0.00 61 1014.9
20260902225004 91 83 0.9 3.5 0.00 0.00 0.00 63 1014.9
20260902224506 91 91 0.9 3.5 0.00 0.00 0.00 60 1014.9
20260902224005 91 126 1.7 7.0 0.00 0.00 0.00 59 1014.8
20260902223503 92 73 2.6 8.7 0.00 0.00 0.00 59 1014.8
20260902223016 92 83 4.3 8.7 0.00 0.00 0.00 57 1014.8
20260902222509 92 108 5.2 7.8 0.00 0.00 0.00 56 1014.9
20260902222013 92 86 5.2 7.8 0.00 0.00 0.00 56 1014.9
20260902221522 92 68 4.3 7.8 0.00 0.00 0.00 56 1014.9
20260902221010 92 75 3.5 7.8 0.00 0.00 0.00 56 1014.9
20260902220515 92 84 3.5 7.8 0.00 0.00 0.00 57 1014.9
20260902220028 92 103 3.5 7.8 0.00 0.00 0.00 55 1015.0
20260902215520 93 85 4.3 10.4 0.00 0.00 0.00 54 1015.0
20260902215013 93 74 6.1 10.4 0.00 0.00 0.00 54 1015.1
20260902214506 93 92 4.3 7.8 0.00 0.00 0.00 54 1015.1
20260902214005 93 87 4.3 7.8 0.00 0.00 0.00 55 1015.1
20260902213505 93 74 3.5 7.0 0.00 0.00 0.00 55 1015.1
20260902213014 93 98 3.5 7.8 0.00 0.00 0.00 57 1015.1
20260902212507 93 70 2.6 7.0 0.00 0.00 0.00 55 1015.1
20260902212009 93 84 3.5 7.0 0.00 0.00 0.00 57 1015.1
20260902211520 92 26 2.6 6.1 0.00 0.00 0.00 56 1015.2
20260902211009 92 80 2.6 7.0 0.00 0.00 0.00 58 1015.2
20260902210509 93 51 5.2 9.6 0.00 0.00 0.00 1015.4
20260902210041 93 82 4.3 9.6 0.00 0.00 0.00 1015.4
20260902205514 94 30 5.2 8.7 0.00 0.00 0.00 55 1015.3
20260902205016 94 53 2.6 5.2 0.00 0.00 0.00 55 1015.3
20260902204528 93 17 2.6 7.0 0.00 0.00 0.00 54 1015.4
20260902204003 92 27 2.6 7.8 0.00 0.00 0.00 54 1015.5
20260902203505 92 57 2.6 8.7 0.00 0.00 0.00 57 1015.5
20260902203013 93 40 5.2 8.7 0.00 0.00 0.00 57 1015.5
20260902202507 93 65 3.5 8.7 0.00 0.00 0.00 54 1015.5
20260902202006 93 96 5.2 10.4 0.00 0.00 0.00 56 1015.6
20260902201531 93 88 6.1 10.4 0.00 0.00 0.00 56 1015.5
20260902201016 93 48 4.3 9.6 0.00 0.00 0.00 57 1015.6
20260902200508 93 29 0.0 6.1 0.00 0.00 0.00 56 1015.6
20260902200032 93 9 2.6 7.8 0.00 0.00 0.00 56 1015.8
20260902195514 92 97 4.3 8.7 0.00 0.00 0.00 57 1015.8
20260902195012 92 86 4.3 11.3 0.00 0.00 0.00 56 1015.9
20260902194536 92 66 3.5 11.3 0.00 0.00 0.00 58 1016.0
20260902194018 93 82 6.1 11.3 0.00 0.00 0.00 56 1016.1
20260902193514 92 42 2.6 7.8 0.00 0.00 0.00 56 1016.1
20260902193010 92 10 3.5 7.8 0.00 0.00 0.00 58 1016.2
20260902192504 93 115 5.2 9.6 0.00 0.00 0.00 57 1016.2
20260902192008 92 29 3.5 9.6 0.00 0.00 0.00 57 1016.3
20260902191518 92 97 2.6 6.1 0.00 0.00 0.00 60 1016.3
20260902191010 92 50 1.7 6.1 0.00 0.00 0.00 57 1016.5
20260902190509 92 88 2.6 5.2 0.00 0.00 0.00 60 1016.5
20260902190025 91 40 1.7 7.8 0.00 0.00 0.00 62 1016.6
20260902185515 91 94 3.5 7.8 0.00 0.00 0.00 60 1016.6
20260902185012 91 82 2.6 7.8 0.00 0.00 0.00 59 1016.7
20260902184527 91 54 4.3 9.6 0.00 0.00 0.00 59 1016.8
20260902184014 92 74 2.6 9.6 0.00 0.00 0.00 56 1016.8
20260902183516 92 106 4.3 7.0 0.00 0.00 0.00 59 1016.8
20260902183030 92 98 3.5 8.7 0.00 0.00 0.00 61 1016.8
20260902182516 91 92 2.6 8.7 0.00 0.00 0.00 59 1016.9
20260902182005 91 79 5.2 8.7 0.00 0.00 0.00 63 1017.0
20260902181513 91 105 5.2 8.7 0.00 0.00 0.00 64 1017.0
20260902181007 91 69 3.5 7.8 0.00 0.00 0.00 64 1017.0
20260902180507 91 94 4.3 6.1 0.00 0.00 0.00 63 1017.1
20260902180023 91 31 1.7 8.7 0.00 0.00 0.00 63 1017.1
20260902175510 91 64 3.5 11.3 0.00 0.00 0.00 62 1017.2
20260902175013 91 116 6.1 11.3 0.00 0.00 0.00 61 1017.2
20260902174527 90 128 2.6 9.6 0.00 0.00 0.00 64 1017.3
20260902174013 90 100 3.5 9.6 0.00 0.00 0.00 64 1017.4
20260902173515 90 113 7.8 9.6 0.00 0.00 0.00 62 1017.4
20260902173037 90 71 3.5 7.8 0.00 0.00 0.00 63 1017.4
20260902172519 89 57 2.6 7.0 0.00 0.00 0.00 68 1017.5
20260902172018 89 110 4.3 7.0 0.00 0.00 0.00 65 1017.6
20260902171509 89 352 2.6 7.8 0.00 0.00 0.00 64 1017.7
20260902171003 90 29 3.5 7.8 0.00 0.00 0.00 63 1017.7
20260902170508 90 43 2.6 9.6 0.00 0.00 0.00 63 1017.9
20260902170017 90 9 3.5 9.6 0.00 0.00 0.00 62 1017.9
20260902165510 90 37 5.2 9.6 0.00 0.00 0.00 66 1017.9
20260902165013 89 101 3.5 9.6 0.00 0.00 0.00 65 1018.0
20260902164530 89 42 3.5 10.4 0.00 0.00 0.00 66 1018.1
20260902164012 90 81 8.7 10.4 0.00 0.00 0.00 67 1018.1
20260902163513 90 91 5.2 10.4 0.00 0.00 0.00 67 1018.1
20260902163003 90 101 7.0 10.4 0.00 0.00 0.00 68 1018.2
20260902162504 89 53 3.5 9.6 0.00 0.00 0.00 70 1018.2
20260902162004 89 35 4.3 10.4 0.00 0.00 0.00 69 1018.4
20260902161509 89 66 3.5 10.4 0.00 0.00 0.00 71 1018.5
20260902161006 89 59 6.1 10.4 0.00 0.00 0.00 70 1018.5
20260902160503 89 80 3.5 7.0 0.00 0.00 0.00 69 1018.6
20260902160013 89 54 0.9 7.0 0.00 0.00 0.00 70 1018.6
20260902155509 88 76 3.5 6.1 0.00 0.00 0.00 72 1018.6
20260902155008 88 347 2.6 5.2 0.00 0.00 0.00 70 1018.6
20260902154521 88 46 2.6 5.2 0.00 0.00 0.00 72 1018.6
20260902154011 88 88 0.9 8.7 0.00 0.00 0.00 76 1018.7
20260902153512 87 316 1.7 8.7 0.00 0.00 0.00 76 1018.7
20260902153029 87 9 0.9 8.7 0.00 0.00 0.00 74 1018.7
20260902152513 87 334 3.5 8.7 0.00 0.00 0.00 75 1018.7
20260902152006 87 63 3.5 7.0 0.00 0.00 0.00 74 1018.6
20260902151508 86 59 1.7 7.8 0.00 0.00 0.00 77 1018.6
20260902151005 86 17 2.6 7.8 0.00 0.00 0.00 77 1018.6
20260902150508 86 352 4.3 7.8 0.00 0.00 0.00 78 1018.5
20260902150012 85 61 2.6 7.8 0.00 0.00 0.00 81 1018.4
20260902145506 85 9 5.2 8.7 0.00 0.00 0.00 79 1018.3
20260902145011 85 44 3.5 8.7 0.00 0.00 0.00 83 1018.3
20260902144533 85 65 5.2 8.7 0.00 0.00 0.00 81 1018.2
20260902144011 84 352 1.7 6.1 0.00 0.00 0.00 83 1018.2
20260902143512 84 349 2.6 7.0 0.00 0.00 0.00 83 1018.3
20260902143028 84 331 2.6 7.0 0.00 0.00 0.00 84 1018.2
20260902142514 83 28 3.5 5.2 0.00 0.00 0.00 84 1018.3
20260902142014 83 327 2.6 5.2 0.00 0.00 0.00 87 1018.2
20260902141535 82 17 0.9 4.3 0.00 0.00 0.00 86 1018.3
20260902141003 82 52 0.9 5.2 0.00 0.00 0.00 86 1018.3
20260902140504 83 5 2.6 5.2 0.00 0.00 0.00 85 1018.3
20260902140012 83 32 3.5 5.2 0.00 0.00 0.00 84 1018.2
20260902135504 83 352 2.6 5.2 0.00 0.00 0.00 85 1018.3
20260902135008 83 40 2.6 5.2 0.00 0.00 0.00 85 1018.3
20260902134518 83 352 2.6 4.3 0.00 0.00 0.00 85 1018.3
20260902134009 83 298 0.0 4.3 0.00 0.00 0.00 86 1018.3
20260902133516 82 352 1.7 4.3 0.00 0.00 0.00 86 1018.3
20260902133025 82 318 0.0 3.5 0.00 0.00 0.00 88 1018.3
20260902132516 82 11 1.7 4.3 0.00 0.00 0.00 88 1018.3
20260902132011 81 34 2.6 4.3 0.00 0.00 0.00 89 1018.4
20260902131542 81 40 2.6 4.3 0.00 0.00 0.00 89 1018.4
20260902131015 81 46 0.9 3.5 0.00 0.00 0.00 91 1018.3
20260902130503 80 43 0.9 3.5 0.00 0.00 0.00 92 1018.4
20260902130008 80 69 1.7 3.5 0.00 0.00 0.00 93 1018.3
20260902125506 79 85 2.6 3.5 0.00 0.00 0.00 93 1018.4
20260902125006 79 72 1.7 3.5 0.00 0.00 0.00 93 1018.4
20260902124516 79 81 1.7 2.6 0.00 0.00 0.00 94 1018.4
20260902124009 78 81 0.0 1.7 0.00 0.00 0.00 95 1018.4
20260902123509 78 65 0.0 0.0 0.00 0.00 0.00 95 1018.4
20260902123023 78 78 0.0 0.0 0.00 0.00 0.00 96 1018.3
20260902122514 77 78 0.0 0.0 0.00 0.00 0.00 96 1018.2
20260902122011 77 78 0.0 0.0 0.00 0.00 0.00 97 1018.2
20260902121528 76 40 0.0 0.0 0.00 0.00 0.00 97 1018.2
20260902121014 76 56 0.0 0.0 0.00 0.00 0.00 97 1018.1
20260902120516 76 49 0.0 0.0 0.00 0.00 0.00 97 1018.0
20260902120031 76 49 0.0 0.0 0.00 0.00 0.00 97 1018.0
20260902115505 75 40 0.0 0.0 0.00 0.00 0.00 97 1017.9
20260902115006 75 46 0.0 0.0 0.00 0.00 0.00 97 1017.9
20260902114519 75 49 0.0 0.0 0.00 0.00 0.00 97 1018.0
20260902114010 75 39 0.0 0.0 0.00 0.00 0.00 97 1018.0
20260902113509 75 39 0.0 0.0 0.00 0.00 0.00 97 1018.0
20260902113020 75 38 0.0 0.0 0.00 0.00 0.00 97 1017.9
20260902112513 75 51 0.0 0.0 0.00 0.00 0.00 97 1017.9
20260902112011 75 55 0.0 0.0 0.00 0.00 0.00 97 1017.9
20260902111527 74 55 0.0 0.0 0.00 0.00 0.00 97 1017.9
20260902111012 74 130 0.0 0.0 0.00 0.00 0.00 97 1017.8
20260902110515 74 130 0.0 0.0 0.00 0.00 0.00 97 1017.7
20260902110030 74 130 0.0 0.0 0.00 0.00 0.00 97 1017.7
20260902105516 74 130 0.0 0.0 0.00 0.00 0.00 97 1017.6
20260902105016 74 130 0.0 0.0 0.00 0.00 0.00 97 1017.5
20260902104517 74 130 0.0 0.0 0.00 0.00 0.00 97 1017.5
20260902104007 74 130 0.0 0.0 0.00 0.00 0.00 97 1017.5
20260902103509 74 130 0.0 0.0 0.00 0.00 0.00 97 1017.6
20260902103019 74 130 0.0 0.0 0.00 0.00 0.00 96 1017.6
20260902102510 74 130 0.0 0.0 0.00 0.00 0.00 96 1017.6
20260902102011 75 130 0.0 0.0 0.00 0.00 0.00 97 1017.6
20260902101527 75 130 0.0 0.0 0.00 0.00 0.00 97 1017.5
20260902101014 75 130 0.0 0.0 0.00 0.00 0.00 97 1017.4
20260902100515 75 130 0.0 0.0 0.00 0.00 0.00 97 1017.4
20260902100029 75 130 0.0 0.0 0.00 0.00 0.00 97 1017.3
20260902095517 75 130 0.0 0.0 0.00 0.00 0.00 97 1017.3
20260902095017 74 130 0.0 0.0 0.00 0.00 0.00 97 1017.2
20260902094533 74 130 0.0 0.0 0.00 0.00 0.00 97 1017.1
20260902094016 74 130 0.0 0.0 0.00 0.00 0.00 96 1017.0
20260902093508 74 130 0.0 0.0 0.00 0.00 0.00 96 1017.0
20260902093016 74 130 0.0 0.0 0.00 0.00 0.00 96 1016.9
20260902092512 74 130 0.0 0.0 0.00 0.00 0.00 96 1016.8
20260902092012 75 130 0.0 0.0 0.00 0.00 0.00 97 1016.7
20260902091554 75 130 0.0 0.0 0.00 0.00 0.00 97 1016.6
20260902091013 74 130 0.0 0.0 0.00 0.00 0.00 97 1016.7
20260902090513 74 130 0.0 0.0 0.00 0.00 0.00 96 1016.8
20260902090029 74 130 0.0 0.0 0.00 0.00 0.00 96 1016.8
20260902085514 75 130 0.0 0.0 0.00 0.00 0.00 96 1016.7
20260902085014 75 130 0.0 0.0 0.00 0.00 0.00 96 1016.7
20260902084535 75 130 0.0 0.0 0.00 0.00 0.00 96 1016.7
20260902084015 75 130 0.0 0.0 0.00 0.00 0.00 96 1016.6
20260902083519 75 130 0.0 0.0 0.00 0.00 0.00 96 1016.6
20260902083031 75 130 0.0 0.0 0.00 0.00 0.00 96 1016.6
20260902082508 75 130 0.0 0.0 0.00 0.00 0.00 96 1016.5
20260902082008 75 130 0.0 0.0 0.00 0.00 0.00 96 1016.5
20260902081530 75 130 0.0 0.0 0.00 0.00 0.00 96 1016.6
20260902081009 76 130 0.0 0.0 0.00 0.00 0.00 96 1016.6
20260902080513 76 130 0.0 0.0 0.00 0.00 0.00 96 1016.6
20260902080035 76 130 0.0 0.0 0.00 0.00 0.00 96 1016.6
20260902075510 76 130 0.0 0.0 0.00 0.00 0.00 96 1016.7
20260902075016 76 130 0.0 0.0 0.00 0.00 0.00 96 1016.8
20260902074510 76 130 0.0 0.0 0.00 0.00 0.00 96 1016.9
20260902074004 76 130 0.0 0.0 0.00 0.00 0.00 96 1016.8
20260902073506 76 130 0.0 0.0 0.00 0.00 0.00 96 1016.8
20260902073015 76 130 0.0 0.0 0.00 0.00 0.00 96 1016.9
20260902072507 76 130 0.0 0.0 0.00 0.00 0.00 96 1016.8
20260902072007 76 130 0.0 0.0 0.00 0.00 0.00 96 1016.8
20260902071545 76 130 0.0 0.0 0.00 0.00 0.00 96 1016.8
20260902071012 76 130 0.0 0.0 0.00 0.00 0.00 96 1016.7
20260902070511 76 130 0.0 0.0 0.00 0.00 0.00 96 1016.6
20260902070027 76 130 0.0 0.0 0.00 0.00 0.00 96 1016.6
20260902065518 76 130 0.0 0.0 0.00 0.00 0.00 95 1016.6
20260902065014 76 130 0.0 0.0 0.00 0.00 0.00 95 1016.6
20260902064531 76 130 0.0 0.0 0.00 0.00 0.00 96 1016.7
20260902064018 76 130 0.0 0.0 0.00 0.00 0.00 96 1016.8
20260902063503 76 130 0.0 0.0 0.00 0.00 0.00 96 1016.9
20260902063019 76 130 0.0 0.0 0.00 0.00 0.00 96 1016.9
20260902062505 77 130 0.0 0.0 0.00 0.00 0.00 96 1016.9
20260902062006 77 130 0.0 0.0 0.00 0.00 0.00 96 1017.0
20260902061531 77 130 0.0 0.0 0.00 0.00 0.00 96 1017.0
20260902061008 77 130 0.0 0.0 0.00 0.00 0.00 96 1017.0
20260902060512 77 130 0.0 0.0 0.00 0.00 0.00 96 1017.0
20260902060031 77 130 0.0 0.0 0.00 0.00 0.00 96 1017.0
20260902055516 77 130 0.0 0.0 0.00 0.00 0.00 96 1017.0
20260902055012 77 130 0.0 0.0 0.00 0.00 0.00 96 1017.1
20260902054538 77 130 0.0 0.0 0.00 0.00 0.00 96 1017.2
20260902054015 76 126 0.0 0.0 0.00 0.00 0.00 96 1017.1
20260902053514 76 93 0.0 1.7 0.00 0.00 0.00 95 1017.1
20260902053033 76 93 0.0 1.7 0.00 0.00 0.00 95 1017.1
20260902052504 77 93 0.0 1.7 0.00 0.00 0.00 96 1017.1
20260902052004 77 93 0.0 1.7 0.00 0.00 0.00 95 1017.0
20260902051516 77 93 1.7 1.7 0.00 0.00 0.00 95 1017.1
20260902051007 77 238 0.0 3.5 0.00 0.00 0.00 96 1017.0
20260902050507 76 116 0.0 3.5 0.00 0.00 0.00 95 1017.1
20260902050046 77 94 0.9 3.5 0.00 0.00 0.00 96 1017.1
20260902045511 76 275 0.0 3.5 0.00 0.00 0.00 96 1017.1
20260902045012 76 101 2.6 3.5 0.00 0.00 0.00 95 1017.2
20260902044531 76 289 0.0 0.0 0.00 0.00 0.00 95 1017.1
20260902044014 76 102 0.0 0.0 0.00 0.00 0.00 94 1017.1
20260902043517 76 102 0.0 0.0 0.00 0.00 0.00 95 1017.1
20260902043038 76 102 0.0 0.0 0.00 0.00 0.00 95 1017.0
20260902042517 76 102 0.0 1.7 0.00 0.00 0.00 94 1017.0
20260902042017 77 281 0.0 1.7 0.00 0.00 0.00 95 1017.0
20260902041519 76 86 0.0 3.5 0.00 0.00 0.00 94 1016.9
20260902041007 77 86 2.6 3.5 0.00 0.00 0.00 94 1017.0
20260902040508 77 115 0.0 0.0 0.00 0.00 0.00 94 1017.0
20260902040019 77 115 0.0 1.7 0.00 0.00 0.00 94 1017.0
20260902035510 77 115 0.0 1.7 0.00 0.00 0.00 93 1017.0
20260902035013 77 115 0.0 1.7 0.00 0.00 0.00 94 1017.1
20260902034529 77 216 0.0 0.0 0.00 0.00 0.00 94 1017.1
20260902034017 77 216 0.0 0.0 0.00 0.00 0.00 93 1017.4
20260902033512 77 124 0.0 0.0 0.00 0.00 0.00 93 1017.4
20260902033031 77 124 0.0 0.0 0.00 0.00 0.00 93 1017.4
20260902032517 77 124 0.0 0.0 0.00 0.00 0.00 92 1017.3
20260902032018 77 124 0.0 0.0 0.00 0.00 0.00 92 1017.5
20260902031534 77 198 0.0 0.0 0.00 0.00 0.00 92 1017.5
20260902031006 78 198 0.0 0.0 0.00 0.00 0.00 91 1017.6
20260902030505 78 198 0.0 0.0 0.00 0.00 0.00 91 1017.6
20260902030019 78 198 0.0 0.0 0.00 0.00 0.00 90 1017.6
20260902025510 79 198 0.0 0.0 0.00 0.00 0.00 90 1017.4
20260902025009 79 198 0.0 0.0 0.00 0.00 0.00 90 1017.3
20260902024524 79 198 0.0 0.0 0.00 0.00 0.00 89 1017.4
20260902024015 79 198 0.0 0.0 0.00 0.00 0.00 89 1017.4
20260902023512 79 198 0.0 0.0 0.00 0.00 0.00 89 1017.4
20260902023030 79 198 0.0 0.0 0.00 0.00 0.00 89 1017.4
20260902022518 79 198 0.0 0.0 0.00 0.00 0.00 89 1017.3
20260902022017 79 184 0.0 0.0 0.00 0.00 0.00 88 1017.2
20260902021532 80 186 0.0 1.7 0.00 0.00 0.00 87 1017.2
20260902021017 80 186 0.0 1.7 0.00 0.00 0.00 87 1017.1
20260902020520 80 186 0.0 4.3 0.00 0.00 0.00 87 1017.0
20260902020015 80 178 0.0 4.3 0.00 0.00 0.00 87 1016.9
20260902015506 80 236 0.9 5.2 0.00 0.00 0.00 87 1016.9
20260902015012 80 188 0.0 5.2 0.00 0.00 0.00 87 1016.8
20260902014528 80 164 0.0 3.5 0.00 0.00 0.00 87 1016.7
20260902014011 80 256 0.0 0.0 0.00 0.00 0.00 86 1016.6
20260902013513 80 256 0.0 0.0 0.00 0.00 0.00 86 1016.5
20260902013030 80 256 0.0 0.0 0.00 0.00 0.00 84 1016.4
20260902012515 81 256 0.0 0.0 0.00 0.00 0.00 83 1016.4
20260902012014 81 256 0.0 0.0 0.00 0.00 0.00 83 1016.3
20260902011542 81 256 0.0 0.0 0.00 0.00 0.00 82 1016.3
20260902011017 81 256 0.0 0.0 0.00 0.00 0.00 83 1016.2
20260902010518 82 256 0.0 0.0 0.00 0.00 0.00 82 1016.3
20260902010104 82 256 0.0 0.0 0.00 0.00 0.00 80 1016.2
20260902005516 82 256 0.0 0.0 0.00 0.00 0.00 79 1016.3
20260902005010 83 256 0.0 0.0 0.00 0.00 0.00 79 1016.1
20260902004520 83 256 0.0 0.0 0.00 0.00 0.00 78 1016.1
20260902004011 83 256 0.0 0.0 0.00 0.00 0.00 77 1016.1
20260902003512 84 256 0.0 0.0 0.00 0.00 0.00 76 1016.0
20260902003027 84 256 0.0 0.0 0.00 0.00 0.00 76 1016.0
20260902002514 84 256 0.0 0.0 0.00 0.00 0.00 75 1016.0
20260902002013 85 256 0.0 0.0 0.00 0.00 0.00 74 1016.0
20260902001531 85 256 0.0 0.0 0.00 0.00 0.00 73 1016.1
20260902001015 86 256 0.0 0.0 0.00 0.00 0.00 73 1016.0
20260902000517 86 256 0.0 0.0 0.00 0.00 0.00 72 1016.0
20260902000042 86 256 0.0 0.0 0.00 0.00 0.00 71 1016.0
20260901235518 87 256 0.0 0.0 0.00 0.00 0.00 70 1016.0
20260901235018 87 260 0.0 0.0 0.00 0.00 0.00 70 1016.0